This is the latest recevied weather packets stored in our database for station/object K5SVV. If no packets are shown the sender has not sent any weather packets the latest 10 day(s).
| Time | Temp. | Humidity | Pressure | Rain* | Wind** | Luminosity | Snow |
|---|---|---|---|---|---|---|---|
| 1777593537 | 15° C | 98% | 1012.7 hPa | 0 mm | - | 59 W/m² | - |
| 1777593231 | 15° C | 98% | 1012.5 hPa | 0 mm | - | 58 W/m² | - |
| 1777592931 | 15° C | 98% | 1012.7 hPa | 0 mm | - | 59 W/m² | - |
| 1777592626 | 15° C | 99% | 1012.7 hPa | 0 mm | - | 41 W/m² | - |
| 1777592323 | 15° C | 99% | 1012.5 hPa | 0 mm | - | 60 W/m² | - |
| 1777592018 | 15° C | 99% | 1012.4 hPa | 0 mm | - | 35 W/m² | - |
| 1777591715 | 15° C | 99% | 1012.4 hPa | 0 mm | - | 34 W/m² | - |
| 1777591410 | 15° C | 99% | 1012 hPa | 0 mm | - | 40 W/m² | - |
| 1777591107 | 14.44° C | 99% | 1012.2 hPa | 0 mm | - | 80 W/m² | - |
| 1777590802 | 14.44° C | 99% | 1012.1 hPa | 0 mm | - | 52 W/m² | - |
| 1777590499 | 14.44° C | 99% | 1011.9 hPa | 0 mm | - | 48 W/m² | - |
| 1777590195 | 14.44° C | 99% | 1012.1 hPa | 0 mm | - | 64 W/m² | - |
| 1777589892 | 14.44° C | 99% | 1011.7 hPa | 0 mm | - | 87 W/m² | - |
| 1777589588 | 14.44° C | 99% | 1011.8 hPa | 0 mm | - | 86 W/m² | - |
| 1777589285 | 14.44° C | 99% | 1012 hPa | 0 mm | - | 71 W/m² | - |
| 1777588982 | 14.44° C | 99% | 1011.5 hPa | 0 mm | - | 127 W/m² | - |
| 1777588672 | 14.44° C | 99% | 1011.7 hPa | 0 mm | - | 92 W/m² | - |
| 1777588368 | 14.44° C | 99% | 1011.7 hPa | 0 mm | - | 48 W/m² | - |
| 1777588064 | 14.44° C | 99% | 1011.5 hPa | 0 mm | - | 67 W/m² | - |
| 1777587760 | 14.44° C | 99% | 1011.6 hPa | 0 mm | - | 97 W/m² | - |
| 1777587459 | 14.44° C | 99% | 1011.6 hPa | 0 mm | - | 88 W/m² | - |
| 1777587156 | 14.44° C | 99% | 1012 hPa | 0 mm | - | 34 W/m² | - |
| 1777586846 | 14.44° C | 99% | 1012.4 hPa | 0 mm | - | 55 W/m² | - |
| 1777586542 | 15° C | 99% | 1011.9 hPa | 0 mm | - | 96 W/m² | - |
| 1777586238 | 15° C | 99% | 1012.1 hPa | 1.78 mm | - | 68 W/m² | - |
* Rain latest hour (hover to see other rain measurements)
** Current wind speed in m/s (hover to see current wind gust speed)